Погода в Ямболе

Болгария     42°29′20″N   26°29′50″E
темп.,
°C
ветер,
м/с
пор.,
м/с
влажн.,
%
обл.,
%
осадки,
мм/ч
давл.,
гПа
погр.,
м
17 мая, вт
вт1700:00+13вюв11815 0.0 101911
03:00+12з11845 0.0 101911
06:00+12зюз22845 0.0 101810
09:00+18зюз23754 0.0 1018253
12:00+23зюз33595 0.0 1017689
15:00+25ююз33485 0.0 10151415
18:00+25юз235419 0.0 10131483
21:00+19ю227316 0.0 101322
18 мая, ср
ср1800:00+16юз11806 0.0 101311
03:00+16з1184100 0.0 101211
06:00+15зюз118594 0.0 101212
09:00+20зсз387191 0.1 1014676
12:00+10св91488100 1.9 1019677
15:00+9св61377100 2.3 1022814
18:00+10ссв3107793 0.8 1024762
21:00+9ссз227347 0.8 102612
19 мая, чт
чт1900:00+7ссв22745 0.0 102823
03:00+7ссз33745 0.0 102930
06:00+6сз22771 0.0 103018
09:00+13с48581 0.0 10301127
12:00+17ссв574838 0.0 10301989
15:00+19св574424 0.0 10282301
18:00+18св575335 0.0 10271908
21:00+11в33774 0.0 102936
20 мая, пт
пт2000:00+8св11871 0.0 103010
03:00+8с11840 0.0 102910
06:00+7з11834 0.0 102910
09:00+14зсз11630 0.0 1029268
12:00+20всв35450 0.0 10281627
15:00+21в45420 0.0 10251645
18:00+20вюв54571 0.0 1024735
21:00+12всв33742 0.0 102523
21 мая, сб
сб2100:00+9всв117939 0.0 102410
03:00+8ссв118192 0.0 102210
06:00+8зюз007997 0.0 102110
09:00+15юз22634 0.0 1020254
12:00+20зюз22530 0.0 1018728
15:00+24ююз22435 0.0 1016990
18:00+24юз12450 0.0 1014918
21:00+17ю11590 0.0 101311